User: anonymous   Login
Location: Pinon Hills
(34.4429°N, 117.6403°W)
Time: 14:00:39
(UTC-07:00)
Language:

XW-2F - Orbit

View from above orbital plane
View from above orbital plane
View from above satellite
View from above satellite

Ground track
Ground track

The orbit data is extracted from the following two-line orbital elements,

1 40910U 15049M   19295.30582060  .00000698  00000-0  38108-4 0  9990
2 40910  97.4659 297.2119 0016180 109.9339  15.7041 15.17476459226060
Epoch (UTC): 22 October 2019 07:20:22
Eccentricity: 0.0016180
inclination: 97.4659°
perigee height: 502 km
apogee height: 524 km
right ascension of ascending node: 297.2119°
argument of perigee: 109.9339°
revolutions per day: 15.17476459
mean anomaly at epoch: 15.7041°
orbit number at epoch: 22606

The dashed part of the orbit path shows where the satellite is in the earth's shadow,  

DLR